www.pogodaiklimat.ru

Погода и климат >> Архив погоды >> Иран >> Birjand


ПОГОДА в Birjand

  • Прогноз погоды в Birjand
  • Монитор погоды в Birjand
  • Климат города

АРХИВ ПОГОДЫ в Birjand

Время (UTC), дата Ветер
(напр.,м/с)
 
Видим.   Явления Облачность Т
(С)
Тd
(С)
f
(%)
Тe
(С)
Тes
(С)
Комфортность P
(гПа)
Po
(гПа)
Тmin
(С)
Tmax
(С)
R
(мм)
R24
(мм)
S
(см)
09 11.08 СВ 8 10 км ясно +31.7 -2.2 11 +28 +32 жарко 1001.7 846.7
12 11.08 СВ 9 8000 м пыльный позёмок 1/1 1200 м
[Cu hum]
+32.4 +0.6 13 +29 +30 жарко 1000.8 846.0
15 11.08 СВ 8 7000 м пыльный позёмок ясно +28.2 +1.7 18 +26 +26 жарко 1002.5 846.8 +33.1
18 11.08 В 5 8000 м мгла ясно +24.6 +6.5 31 +25 +25 комфорт 1002.8 848.3
21 11.08 В 3 10 км ясно +22.4 +6.9 37 +23 +23 комфорт 1002.6 848.0
00 12.08 В 3 10 км ясно +21.0 +7.3 41 +23 +23 комфорт 1002.7 847.9
03 12.08 В 5 10 км ясно +22.1 +5.4 34 +23 +24 комфорт 1003.9 848.2 +20.1
06 12.08 В 7 10 км ясно +25.9 +3.8 24 +25 +29 комфорт 1003.7 847.9
09 12.08 СВ 7 10 км ясно +28.5 +1.1 17 +26 +32 жарко 1002.5 846.9
12 12.08 СВ 7 10 км ясно +29.7 -1.8 13 +27 +29 жарко 1001.3 845.8
15 12.08 СВ 6 10 км ясно +25.9 -1.6 16 +24 +24 комфорт 1002.3 846.0 +30.5
18 12.08 В 4 10 км ясно +21.6 -2.2 20 +21 +21 комфорт 1003.7 847.0
21 12.08 Ю 4 10 км ясно +17.7 -5.6 20 +18 +18 1003.6 846.3
00 13.08 ЮВ 2 10 км ясно +14.7 -7.6 21 +15 +15 1003.2 845.8
03 13.08 СВ 2 10 км ясно +18.7 -7.5 16 +19 +22 1004.0 846.5 +14.0
06 13.08 Ю 2 15 км ясно +26.6 -10.6 8 +23 +39 комфорт 1002.6 846.2
09 13.08 С 5 15 км ясно +30.5 -16.6 4 +26 +36 жарко 1002.1 845.7
12 13.08 С 5 15 км ясно +30.7 -16.0 4 +26 +30 жарко 1002.2 845.1
15 13.08 СВ 6 15 км ясно +26.8 -16.0 5 +23 +23 комфорт 1002.6 845.4 +31.8
18 13.08 В 2 10 км ясно +20.1 -12.2 10 +20 +20 1003.9 846.9
21 13.08 ЮВ 2 10 км ясно +18.0 -10.7 13 +19 +19 1003.6 846.4
00 14.08 штиль 0 10 км ясно +14.0 -10.4 17 +14 +14 1003.4 846.0
03 14.08 В 2 10 км ясно +17.4 -6.4 19 +18 +20 1004.9 847.2 +12.4
06 14.08 З 2 10 км ясно +26.3 -11.9 7 +23 +38 комфорт 1004.3 847.1
09 14.08 С 7 10 км ясно +30.9 -13.3 5 +26 +32 жарко 1002.9 846.5
12 14.08 С 5 10 км ясно +31.4 -12.7 5 +27 +30 жарко 1002.6 845.5
15 14.08 СВ 4 10 км ясно +28.8 -12.3 6 +25 +25 комфорт 1001.9 845.1 +32.4
18 14.08 В 4 10 км ясно +21.3 -14.4 8 +20 +20 1003.5 846.7
21 14.08 В 3 10 км ясно +17.0 -15.0 10 +17 +17 1003.5 846.1
00 15.08 В 4 10 км ясно +14.3 -16.6 10 +13 +13 1003.4 846.1
03 15.08 ЮВ 4 12 км ясно +16.0 -15.8 10 +15 +17 1005.0 847.3 +12.4
06 15.08 штиль 0 15 км ясно +29.3 -20.3 3 +25 +45 комфорт 1003.7 847.6
09 15.08 ЮВ 2 15 км ясно +32.4 -22.9 2 +27 +46 жарко 1002.5 846.2
12 15.08 С 7 10 км ясно +33.5 -17.0 3 +29 +30 жарко 1001.7 845.2
15 15.08 С 4 10 км ясно +29.5 -20.1 3 +25 +25 комфорт 1003.2 845.9 +34.4
18 15.08 В 3 10 км ясно +22.1 -19.4 5 +20 +20 1002.9 847.0
21 15.08 ЮВ 3 10 км ясно +19.4 -14.2 9 +19 +19 1002.8 846.8
00 16.08 В 4 10 км ясно +15.1 -16.0 10 +14 +14 1003.5 847.0
03 16.08 ЮВ 3 10 км ясно +16.6 -14.2 11 +17 +18 1005.3 847.9 +13.9
06 16.08 В 3 12 км ясно +30.3 -13.5 5 +26 +39 жарко 1004.1 848.3
09 16.08 СЗ 6 12 км ясно +33.9 -11.0 5 +29 +37 жарко 1001.8 846.7
12 16.08 СЗ 2 15 км ясно +34.1 -8.4 6 +30 +36 жарко 1002.2 846.1
15 16.08 СВ 9 12 км ясно +28.6 -9.0 8 +25 +25 комфорт 1004.0 846.6 +35.5
18 16.08 В 5 10 км ясно +23.9 -6.0 13 +22 +22 комфорт 1003.1 848.0
21 16.08 В 4 10 км ясно +21.0 -6.4 15 +20 +20 1002.1 848.2
00 17.08 В 6 10 км ясно +19.8 -3.8 20 +19 +19 1002.5 847.6
03 17.08 В 4 10 км ясно +21.0 -2.8 20 +21 +22 комфорт 1005.5 849.1 +17.5
06 17.08 В 8 15 км ясно +27.4 -2.6 14 +25 +27 комфорт 1004.9 849.0
09 17.08 СВ 6 15 км ясно +32.1 -3.4 10 +28 +36 жарко 1003.0 847.8
12 17.08 СВ 6 15 км ясно +31.9 -3.5 10 +28 +31 жарко 1002.5 847.0
15 17.08 СВ 5 12 км ясно +28.0 -3.0 13 +25 +25 комфорт 1003.6 847.3 +33.6
18 17.08 В 4 10 км ясно +22.6 -5.1 15 +21 +21 комфорт 1004.8 848.5
21 17.08 В 4 10 км ясно +20.3 -5.3 17 +20 +20 848.0
00 18.08 В 6 10 км ясно +17.4 -6.4 19 +17 +17 1003.8 847.5
03 18.08 ЮВ 2 10 км ясно +20.4 -6.1 16 +21 +23 комфорт 1005.4 848.6 +15.4
06 18.08 штиль 0 10 км ясно +29.6 -2.6 12 +26 +47 жарко 1004.4 848.7

 

Местоположение метеостанции Birjand (Иран): широта 32.87 долгота 59.20 высота над уровнем моря 1491 м.

В архиве по умолчанию представлена погода в Birjand за последнюю неделю. Архивные данные за месяц целиком и за предыдущие месяцы, начиная с января 2011 года, Вы можете получить, выбрав интересующий диапазон дат из раскрывающегося списка и нажав кнопку "Ввод!".

Внимание! Время в таблицах - всемирное. Для получения местного времени необходимо прибавить поправку, которая в Birjand равна 3.5 ч.

Смотрите также архив погоды в соседних городах и на ближайших метеорологических станциях:

Погода в Ferdous (Иран) (160 км)
Погода в Nehbandan (Иран) (168 км)
Погода в Tabas (Иран) (227 км)
Погода в Torbat-Heydarieh (Иран) (267 км)
Погода в Kashmar (Иран) (268 км)
Погода в Zabol (Иран) (295 км)
Погода в Heart (Афганистан) (318 км)
Погода в Kerman (Иран) (360 км)
Погода в Mashhad (Иран) (380 км)
Погода в Серхетабаде (Марыйский велаят, Туркменистан) (395 км)

Пояснения к столбцам:

Ветер - указаны скорость ветра в м/с - средняя за 10 мин, порывы в срок и между сроками (в фигурных скобках) и направление, откуда дует ветер: С - северный, СВ - северо-восточный, В - восточный, ЮВ - юго-восточный, Ю - южный, ЮЗ - юго-западный, З - западный, СЗ - северо-западный.
Видимость - горизонтальная дальность видимости в метрах или километрах. При видимости от 1 до 10 км при отсутствии осадков обычно наблюдается дымка, при ухудшении видимости до 1 км и менее - туман. В сухую погоду видимость может ухудшаться дымом, пылью или мглою.
Явления - указаны атмосферные явления, наблюдавшиеся в срок или в последний час перед сроком; фигурными скобками обозначены явления, наблюдавшиеся между сроками (за 1-3 часа до срока); квадратными скобками обозначены град или гололедные отложения с указанием их диаметра в мм.
Облачность - указаны через наклонную черту общая и нижняя облачность в баллах и высота нижней границы облаков в метрах; квадратными скобками обозначены формы облаков: Ci - перистые, Cs - перисто-слоистые, Cc - перисто-кучевые, Ac - высококучевые, As - высокослоистые, Sc - слоисто-кучевые, Ns - слоисто-дождевые, Cu - кучевые, Cb - кучево-дождевые. Подробнее классификацию облаков см. в Атласе облаков (PDF).
T - Температура воздуха - температура, измеренная на высоте 2 м над землей.
Td - Температура точки росы - температура, при понижении до которой содержащийся в воздухе водяной пар достигнет насыщения.
f - Относительная влажность воздуха - влажноcть воздуха, измеренная на высоте 2 м над землей.
Te - Эффективная температура - температура, которую ощущает одетый по сезону человек в тени. Характеристика душности погоды. При расчете учитывается влияние влажности воздуха и скорости ветра на теплоощущения человека.
Tes - Эффективная температура на солнце - температура, которую ощущает человек, с поправкой на солнечный нагрев. Характеристика знойности погоды. Зависит от высоты солнца над горизонтом, облачности и скорости ветра. Ночью, в пасмурную погоду, а также при ветре 12 м/с и более поправка равна нулю.
P - Атмосферное давление - приведенное к уровню моря атмосферное давление.
Po - Атмосферное давление - измеренное на уровне метеостанции атмосферное давление.
Tmin - Минимальная температура - минимум температуры воздуха на высоте 2 м над землей.
Tmax - Максимальная температура - максимум температуры воздуха на высоте 2 м над землей.
R - Количество осадков - Количество выпавших осадков за период времени, мм. При наведении курсора мыши на число - период времени, за который выпало указанное количество осадков.
R24 - Количество осадков - Количество выпавших осадков за 24 часа, мм.
S - Снежный покров - Высота снежного покрова, см. При наведении курсора мыши на число - состояние снежного покрова и степень покрытия местности в баллах.